Theta_e
302 302 301 301 301 301 302 302 302 302 302 303 304 305 305 307 307 307 308 307 308 305 306 314 314 313 315 316 313 311 309 310 310 311 312 314 315 318 319 335 345 340 346 345 349
302 301 301 301 301 302 302 302 302 302 302 305 305 305 306 307 308 309 310 311 311 308 309 308 312 313 314 316 315 308 305 309 310 311 314 314 316 318 319 347 351 347 345 349 350
302 301 301 301 302 304 304 304 303 302 302 304 306 306 308 308 309 311 310 311 312 315 310 310 310 312 312 313 315 310 308 309 311 313 315 314 316 318 317 339 349 337 348 349 350
301 301 301 302 303 306 306 307 305 303 303 304 306 308 308 308 307 312 313 309 313 314 312 311 310 312 309 311 312 313 313 313 312 314 313 314 315 315 317 317 332 346 346 349 347
301 301 302 302 303 307 308 308 308 307 305 306 308 308 308 308 308 314 317 313 314 315 312 311 311 310 309 309 310 312 314 316 316 314 314 313 314 314 316 317 318 334 346 347 345
302 301 302 303 304 308 310 310 310 310 309 307 307 307 309 309 309 308 310 315 310 314 314 312 311 309 310 309 309 312 312 313 315 316 316 312 313 315 317 318 319 336 345 347 345
302 302 303 303 307 311 312 312 311 312 310 308 308 308 309 309 308 308 308 309 309 309 312 311 311 311 311 314 315 316 315 313 312 315 314 314 313 314 316 317 317 345 346 345 345
303 303 303 306 310 312 312 312 311 311 311 309 309 309 308 308 308 309 308 308 309 310 310 310 310 310 314 314 315 317 313 314 314 314 315 314 313 314 316 317 318 340 346 345 345
304 304 307 311 312 313 312 312 311 311 311 310 308 307 307 308 311 310 309 308 309 308 309 309 310 312 314 313 313 314 316 314 317 314 314 313 313 314 316 317 333 347 346 344 345
304 306 312 312 313 313 312 312 311 311 310 310 308 308 310 311 311 310 310 308 308 309 309 309 311 310 309 311 312 315 315 314 316 315 315 312 312 312 316 318 343 344 343 344 346
304 310 312 313 313 313 313 312 311 310 310 310 310 309 309 309 310 310 310 308 308 308 307 307 308 310 310 312 314 315 317 320 317 315 313 313 314 313 314 322 338 345 342 346 349
307 312 312 313 314 314 313 311 311 310 309 310 309 309 309 309 309 310 311 309 308 307 306 306 307 308 311 312 313 315 317 319 319 318 312 312 313 313 314 315 333 342 339 340 342
309 312 313 314 314 314 314 313 311 311 308 309 310 310 310 309 309 310 310 309 309 309 308 306 307 308 310 312 313 313 316 318 320 319 315 313 314 314 314 316 318 341 342 338 341
311 312 313 314 314 314 314 313 311 311 305 313 312 313 313 311 309 310 310 310 310 310 309 308 308 309 308 310 311 312 313 317 319 321 316 313 314 314 314 314 315 320 335 337 336
311 312 313 314 314 314 314 314 311 309 310 313 314 314 312 312 312 312 310 310 310 311 309 309 310 309 309 309 310 311 316 316 318 320 316 314 314 316 313 314 314 315 334 341 338
313 314 313 314 314 314 314 314 311 307 313 314 314 314 313 312 312 313 312 310 310 311 310 309 310 310 309 308 308 313 315 317 318 318 316 315 314 313 314 315 313 313 336 343 344
311 313 313 313 314 315 315 314 307 314 314 315 315 314 313 313 314 314 314 313 311 312 310 310 310 310 311 311 310 310 318 323 323 321 317 314 314 313 316 313 314 314 327 346 347
312 313 313 313 314 314 314 308 315 315 316 314 315 313 313 314 313 312 315 314 310 310 310 310 308 310 310 310 311 313 316 324 326 322 315 314 316 316 314 315 318 319 325 345 348
312 312 312 313 314 314 313 310 317 316 315 317 314 312 315 315 312 310 312 313 313 310 311 311 311 310 311 312 313 316 318 316 317 314 313 313 315 317 315 315 315 316 322 338 345
311 315 310 313 314 313 310 314 315 315 315 314 314 314 315 315 314 314 312 311 313 309 307 312 311 312 312 313 314 315 316 321 315 314 316 314 316 315 316 316 315 313 318 331 336
309 314 310 312 313 312 306 311 314 315 315 314 312 313 314 315 315 313 313 312 312 311 309 311 311 312 315 316 316 315 315 319 313 312 314 314 315 313 315 315 315 319 334 335 337
308 307 311 311 309 306 305 309 312 314 315 315 311 307 311 313 315 316 315 314 312 310 311 311 311 314 317 316 316 315 320 317 315 317 315 313 314 329 313 313 322 333 335 337 338
308 310 307 309 304 305 307 309 311 313 314 315 314 311 312 312 316 315 316 313 311 311 314 313 312 317 318 317 315 313 318 318 314 316 320 316 317 329 313 318 332 333 333 332 332
306 304 307 307 307 307 306 308 308 311 313 314 316 315 316 311 311 315 316 316 313 315 316 313 314 316 312 318 317 317 319 319 314 317 322 324 333 319 330 333 333 333 332 330 328
306 305 307 303 305 304 305 307 308 310 312 312 314 313 315 312 312 315 317 317 316 316 314 313 314 317 317 319 320 320 321 318 317 316 326 334 333 332 331 332 332 331 329 326 324
305 308 308 307 307 303 304 307 308 309 310 311 311 312 313 317 315 317 317 318 317 315 314 311 314 318 319 318 320 322 320 318 318 331 333 334 335 332 332 332 331 328 326 323 321
304 308 307 306 304 303 304 306 307 307 309 311 311 311 313 313 314 313 314 317 318 316 312 313 312 317 321 320 320 322 318 320 322 326 332 334 333 332 332 330 327 324 323 320 319
Wind_Speed
23 23 24 24 24 23 24 23 22 20 18 17 17 18 19 17 19 22 21 8 6 11 16 15 13 7 10 9 13 9 2 6 6 7 3 5 4 2 4 9 6 28 18 20 30
25 24 24 25 25 25 24 25 22 20 18 17 17 16 16 17 23 25 4 8 7 7 12 16 16 5 4 9 11 5 4 7 6 5 2 5 4 7 6 0 3 6 13 30 40
26 26 26 26 27 25 24 23 22 20 19 17 16 15 13 18 22 6 9 7 4 2 6 12 12 1 2 4 7 5 5 8 5 6 8 5 4 7 5 5 13 25 31 43 39
27 27 27 26 26 22 21 23 21 19 19 16 14 12 11 14 5 11 6 5 2 2 6 12 10 4 1 3 4 4 5 9 4 8 6 4 7 8 12 11 3 25 38 43 41
30 29 29 26 23 20 23 24 22 19 16 13 12 9 11 8 12 13 15 7 3 4 4 10 9 5 3 2 9 4 3 10 8 12 22 9 10 9 23 24 17 19 32 43 47
31 31 29 26 20 21 23 20 20 20 17 14 11 6 9 9 4 2 18 18 10 5 5 8 6 12 4 3 5 6 10 9 8 11 13 2 7 10 19 15 7 30 40 46 49
33 31 28 23 18 21 17 19 23 22 14 11 6 4 13 21 7 9 12 10 11 9 7 8 11 6 3 4 5 8 7 8 6 4 6 8 8 20 34 18 21 34 48 37 37
34 30 23 19 21 16 18 17 19 18 10 6 1 5 9 6 8 7 9 16 11 11 8 5 5 12 6 7 7 4 2 4 3 10 8 9 18 6 23 14 22 39 40 31 30
33 24 19 20 19 19 18 19 18 14 5 2 2 5 10 7 8 13 8 5 12 8 6 4 6 7 4 2 4 3 3 6 3 10 7 14 7 8 25 14 18 33 34 35 30
29 19 19 19 18 20 16 18 16 8 2 3 1 3 5 2 11 13 3 2 8 7 3 1 2 3 2 3 5 5 3 3 8 6 17 7 9 9 8 17 21 30 29 35 33
22 18 17 18 18 19 19 15 13 3 9 9 7 9 16 14 14 4 5 7 7 3 3 2 1 4 4 4 3 10 10 7 7 6 5 14 1 13 11 5 14 25 27 34 37
19 20 17 18 17 17 17 8 7 8 9 10 10 20 18 13 7 8 5 6 4 4 2 3 4 4 4 4 6 8 8 12 13 14 6 4 14 11 6 5 22 25 26 32 36
16 22 20 20 19 16 15 9 9 11 3 9 6 5 6 10 6 11 10 10 5 5 5 6 5 6 10 6 7 8 10 9 8 12 6 4 1 5 6 6 17 30 39 36 41
14 21 22 23 20 24 13 17 16 6 3 6 3 3 6 3 6 13 13 11 3 8 4 5 6 12 8 12 9 10 7 13 11 6 4 8 4 7 6 7 7 15 25 36 40
14 22 21 23 26 24 23 20 13 1 3 9 2 4 24 8 5 4 16 19 7 6 5 6 2 4 11 15 10 6 4 8 8 9 6 4 3 11 8 6 7 8 26 37 42
14 15 20 23 25 26 25 23 6 4 5 7 4 16 12 14 10 8 4 7 10 5 1 6 4 3 3 9 11 3 4 8 6 2 3 8 8 4 7 12 5 7 26 32 41
14 12 16 21 21 24 25 15 4 5 6 10 12 13 14 5 6 5 8 10 5 3 5 3 7 5 6 2 3 7 4 5 5 5 5 7 5 7 17 12 9 10 28 31 45
14 10 14 16 15 22 19 5 7 8 6 9 10 17 4 7 2 7 3 4 7 10 2 2 6 11 10 11 6 4 8 3 4 6 4 5 8 5 11 14 25 26 38 39 40
12 10 15 15 12 21 13 5 3 5 8 8 13 5 3 2 2 3 4 4 8 12 5 2 5 2 21 9 9 7 5 5 4 5 3 5 4 3 11 10 9 19 33 34 33
12 1 18 15 11 18 5 1 4 3 8 1 3 3 5 6 4 3 3 4 5 9 11 3 4 7 10 9 3 5 6 7 4 6 6 3 3 8 10 13 10 10 17 27 32
11 0 14 17 11 12 2 4 5 12 6 3 2 4 6 4 4 5 5 4 6 10 15 5 2 2 7 6 9 3 2 9 3 3 5 4 4 6 12 10 14 11 24 35 37
11 2 10 15 9 3 3 6 10 7 3 2 0 4 4 5 4 4 4 4 10 8 8 5 3 2 2 4 7 3 4 6 1 2 0 4 3 4 11 11 18 22 28 29 38
17 6 8 15 3 4 8 6 5 5 5 2 3 8 6 4 5 5 4 3 10 7 6 6 1 2 1 1 6 3 10 12 4 2 3 6 4 4 7 12 28 31 30 34 40
10 4 7 7 4 1 5 6 8 16 5 6 4 4 7 3 5 6 4 2 6 3 6 7 4 6 4 2 8 4 17 10 5 1 2 2 2 5 14 20 21 35 37 36 37
12 2 3 4 5 7 3 4 6 7 5 10 4 11 11 3 3 4 5 2 2 5 3 3 4 4 5 7 8 9 15 3 6 6 3 7 5 8 16 23 26 37 40 40 37
8 6 7 9 13 7 5 5 6 9 4 9 6 16 12 4 5 14 16 3 3 2 3 0 3 2 2 3 7 9 11 9 5 5 8 15 11 12 20 30 34 37 40 39 37
13 7 5 6 6 4 2 4 9 12 11 15 15 12 10 8 23 28 22 11 7 1 2 2 0 1 4 4 8 8 9 4 4 6 13 13 9 18 17 19 31 33 37 41 40
Wind_Direction
355 351 350 346 342 337 332 327 327 323 322 319 315 315 317 319 311 305 303 298 279 196 222 210 201 206 209 206 197 193 180 223 213 191 203 58 82 33 289 185 185 182 221 204 189
352 352 350 344 341 337 329 321 321 320 317 313 314 312 314 313 311 310 155 98 75 191 219 219 211 222 198 197 196 177 193 216 200 192 222 42 71 342 359 304 170 188 215 191 173
351 351 350 346 343 338 337 330 320 312 308 308 308 311 318 323 325 132 108 69 48 32 235 226 218 270 283 225 205 198 208 226 264 295 301 126 339 306 303 233 171 208 162 173 174
352 351 348 346 345 346 346 341 331 317 306 308 308 313 319 311 301 171 174 132 152 23 219 206 208 176 151 236 272 264 220 250 259 279 301 75 349 312 270 246 272 217 194 177 180
352 348 344 343 341 341 338 331 329 326 319 307 305 316 310 289 266 197 214 203 161 86 93 177 168 181 178 196 326 236 274 288 288 270 273 266 262 255 277 270 259 230 186 185 185
349 345 343 341 341 341 335 333 333 327 316 305 299 294 289 267 316 240 237 237 216 173 182 187 188 212 254 241 163 306 290 273 270 266 266 251 257 242 255 251 292 194 193 189 192
348 343 342 343 346 348 347 338 332 325 317 305 296 275 273 263 305 275 271 234 209 219 231 244 249 195 233 285 289 284 308 288 232 189 231 193 262 232 245 245 268 200 194 193 192
348 345 348 353 352 359 348 336 334 328 319 308 329 254 256 317 323 339 258 235 201 209 238 280 246 230 208 302 343 304 222 248 254 169 227 156 256 259 250 243 266 204 189 188 183
351 354 1 360 7 0 356 350 333 332 316 358 89 233 263 338 354 356 311 250 197 201 249 280 203 196 159 90 6 309 247 218 322 192 184 192 251 252 257 242 223 179 177 179 174
355 5 5 7 2 3 358 355 325 344 94 15 138 271 279 360 315 330 270 137 177 187 237 119 148 133 60 116 221 209 219 279 196 218 206 216 236 287 305 194 185 174 171 171 168
3 13 6 6 356 352 355 351 357 320 296 247 252 260 281 291 288 296 221 130 122 121 161 292 116 230 208 231 301 305 310 317 317 230 211 225 195 257 281 150 159 160 158 160 161
13 13 16 5 348 349 350 357 340 325 313 306 274 259 276 275 309 236 234 182 158 199 140 1 256 247 253 231 255 270 288 286 292 266 229 191 215 231 231 216 179 167 150 155 160
14 14 12 1 353 340 347 334 317 317 291 296 272 277 4 205 235 252 181 202 173 198 193 185 217 185 217 240 256 249 232 259 256 322 269 136 271 196 227 239 186 185 164 167 164
8 9 359 356 352 343 359 342 328 305 44 326 312 35 27 318 234 283 215 189 180 203 200 222 238 237 217 233 221 255 255 241 259 296 241 171 210 215 192 189 171 170 166 168 171
352 7 356 346 343 344 341 342 346 116 14 332 298 299 333 257 298 289 232 203 187 182 138 239 247 227 216 222 212 242 254 246 252 265 332 220 99 202 145 165 189 173 173 174 179
354 360 358 348 349 342 330 336 323 49 331 337 311 328 327 306 269 270 219 214 214 144 275 235 174 201 251 221 226 267 282 251 226 173 251 234 169 228 168 186 160 144 175 184 173
346 7 350 347 342 344 323 336 39 51 334 321 318 319 324 267 293 299 236 233 188 168 232 279 232 191 170 161 194 198 85 185 189 190 220 196 155 213 197 146 156 156 168 178 170
358 25 8 357 348 352 336 39 53 321 299 296 311 318 288 4 336 320 297 207 223 232 12 259 314 177 173 204 172 155 155 269 125 168 178 181 198 240 157 152 164 168 172 172 177
4 37 4 357 339 352 355 45 306 303 288 292 313 322 301 2 310 330 266 218 194 180 166 243 253 184 172 160 146 141 174 225 297 245 123 189 245 74 136 134 148 149 165 172 169
12 66 9 353 350 351 47 231 221 205 273 255 317 327 314 314 314 256 290 236 162 171 194 203 303 344 142 127 15 171 74 230 219 150 168 244 149 167 147 160 162 137 127 151 149
3 103 4 5 352 3 99 253 274 312 341 244 222 279 271 300 311 307 265 243 215 189 187 168 154 249 215 202 181 124 208 223 253 175 165 132 215 216 165 172 153 117 124 139 139
4 15 345 9 37 8 333 291 312 297 277 223 234 242 265 289 294 288 267 255 170 150 178 198 157 179 268 356 122 126 241 280 232 116 248 133 266 42 156 150 119 123 125 129 132
343 311 342 27 64 318 307 301 301 301 281 245 251 216 191 285 294 269 272 288 146 168 173 186 310 263 92 160 98 105 253 241 225 132 229 127 221 54 117 125 132 131 133 130 130
356 354 340 22 30 286 323 284 325 327 273 297 249 268 319 213 300 301 286 234 194 163 208 142 170 203 198 147 120 198 233 226 156 68 219 207 91 92 128 129 131 133 136 133 132
13 6 1 309 334 333 283 290 322 332 301 313 300 334 332 230 269 261 286 293 144 180 122 166 244 201 229 54 135 220 251 350 186 216 190 170 131 144 146 140 137 136 133 128 127
11 354 330 290 299 319 2 314 303 326 267 294 325 307 318 272 226 303 302 246 323 18 157 307 265 318 93 102 199 243 273 298 204 105 110 113 105 124 128 133 138 141 134 128 130
357 331 314 286 325 358 272 298 288 317 291 281 312 304 312 255 307 282 272 249 265 294 207 147 211 204 34 127 111 272 254 191 89 85 143 149 143 130 138 141 143 137 136 134 135